Location: ?
(35.3436°N, 139.3168°E)
Time: 07:53:26
(UTC+00:00)

SAR-Lupe-1 - Pass Details

Date: 29 October 2020
Orbit: 480 x 485 km, 98.2° (Epoch: 26 November)

Event Time Altitude Azimuth Distance (km) Brightness Sun altitude
Rises 20:04:54 0° 176° (S) 2,526 7.9 -12.3°
Reaches altitude 10° 20:06:59 10° 182° (S) 1,650 6.8 -11.8°
Maximum altitude 20:10:27 52° 259° (W) 605 4.2 -11.1°
Drops below altitude 10° 20:13:56 10° 337° (NNW) 1,662 6.5 -10.4°
Sets 20:16:03 0° 342° (NNW) 2,545 7.4 -10.0°
